Location: Dehesa de la Cepeda
(40.6574°N, 4.3013°W)
Time: 03:03:22
(UTC+00:00)

USA 215 - Pass Details

Date: 05 July 2020
Orbit: 1102 x 1106 km, 123.0° (Epoch: 08 August)

Event Time Altitude Azimuth Distance (km) Brightness Sun altitude
Rises 22:44:19 0° 44° (NE) 3,925 6.4 -22.7°
Reaches altitude 10° 22:46:53 10° 39° (NE) 2,964 5.8 -22.9°
Maximum altitude 22:53:06 49° 328° (NNW) 1,397 4.2 -23.4°
Drops below altitude 10° 22:59:19 10° 256° (WSW) 2,955 5.6 -23.8°
Sets 23:01:52 0° 251° (WSW) 3,911 6.2 -24.0°
